This is the latest recevied weather packets stored in our database for station/object K1AWR. If no packets are shown the sender has not sent any weather packets the latest 10 day(s).
| Time | Temp. | Humidity | Pressure | Rain* | Wind** | Luminosity | Snow |
|---|---|---|---|---|---|---|---|
| 1777792294 | 6.11° C | 58% | 1010.6 hPa | 0 mm | - | 0 W/m² | - |
| 1777791991 | 6.11° C | 58% | 1010.6 hPa | 0 mm | - | 0 W/m² | - |
| 1777791689 | 6.11° C | 61% | 1010.7 hPa | 0 mm | - | 0 W/m² | - |
| 1777791386 | 6.11° C | 58% | 1010.7 hPa | 0 mm | - | 0 W/m² | - |
| 1777791084 | 6.11° C | 57% | 1010.7 hPa | 0 mm | - | 0 W/m² | - |
| 1777790781 | 6.11° C | 57% | 1010.7 hPa | 0 mm | - | 0 W/m² | - |
| 1777790478 | 6.11° C | 59% | 1010.6 hPa | 0 mm | - | 0 W/m² | - |
| 1777790175 | 6.11° C | 58% | 1010.7 hPa | 0 mm | - | 0 W/m² | - |
| 1777789873 | 6.67° C | 58% | 1010.8 hPa | 0 mm | - | 0 W/m² | - |
| 1777789571 | 6.67° C | 58% | 1010.8 hPa | 0 mm | - | 0 W/m² | - |
| 1777789270 | 6.67° C | 56% | 1010.8 hPa | 0 mm | - | 0 W/m² | - |
| 1777788966 | 6.67° C | 56% | 1011 hPa | 0 mm | - | 0 W/m² | - |
| 1777788663 | 6.11° C | 57% | 1011 hPa | 0 mm | - | 0 W/m² | - |
| 1777788363 | 6.67° C | 57% | 1011.2 hPa | 0 mm | - | 0 W/m² | - |
| 1777788058 | 6.11° C | 59% | 1011.2 hPa | 0 mm | - | 0 W/m² | - |
| 1777787753 | 6.67° C | 58% | 1011.3 hPa | 0 mm | - | 0 W/m² | - |
| 1777787449 | 6.67° C | 56% | 1011.6 hPa | 0 mm | - | 0 W/m² | - |
| 1777787145 | 6.67° C | 56% | 1011.5 hPa | 0 mm | - | 0 W/m² | - |
| 1777786843 | 6.67° C | 53% | 1011.6 hPa | 0 mm | - | 0 W/m² | - |
| 1777786541 | 7.22° C | 52% | 1011.5 hPa | 0 mm | - | 0 W/m² | - |
| 1777786238 | 7.22° C | 52% | 1011.6 hPa | 0 mm | - | 0 W/m² | - |
| 1777785935 | 7.22° C | 54% | 1011.8 hPa | 0 mm | - | 0 W/m² | - |
| 1777785631 | 7.22° C | 53% | 1011.9 hPa | 0 mm | - | 0 W/m² | - |
| 1777785327 | 7.22° C | 53% | 1011.8 hPa | 0 mm | - | 0 W/m² | - |
| 1777785025 | 7.22° C | 53% | 1011.9 hPa | 0 mm | - | 0 W/m² | - |
* Rain latest hour (hover to see other rain measurements)
** Current wind speed in m/s (hover to see current wind gust speed)